Time,TemperatureF,DewpointF,PressureIn,WindDirection,WindDirectionDegrees,WindSpeedMPH,WindSpeedGustMPH,Humidity,HourlyPrecipIn,Conditions,Clouds,dailyrainin,SoftwareType,DateUTC
2013-02-13 00:03:00,46.8,33.2,29.58,NNE,22,0.0,0.0,59,0.00,,,0.00,WUHU21623XXSP,2013-02-13 06:03:00,
2013-02-13 00:08:00,46.6,33.0,29.58,NE,45,0.0,0.0,59,0.00,,,0.00,WUHU21623XXSP,2013-02-13 06:08:00,
2013-02-13 00:13:00,46.6,33.4,29.57,NE,45,0.0,0.0,60,0.00,,,0.00,WUHU21623XXSP,2013-02-13 06:13:00,
2013-02-13 00:18:00,46.6,33.4,29.57,NE,45,0.0,0.0,60,0.00,,,0.00,WUHU21623XXSP,2013-02-13 06:18:00,
2013-02-13 00:23:00,46.6,33.4,29.57,ENE,67,0.0,0.0,60,0.00,,,0.00,WUHU21623XXSP,2013-02-13 06:23:00,
2013-02-13 00:27:00,46.6,33.4,29.57,ESE,112,0.0,0.0,60,0.00,,,0.00,WUHU21623XXSP,2013-02-13 06:27:00,
2013-02-13 00:32:00,46.6,33.8,29.57,ESE,112,0.0,0.0,61,0.00,,,0.00,WUHU21623XXSP,2013-02-13 06:32:00,
2013-02-13 00:37:00,46.6,34.2,29.57,ESE,112,0.0,0.0,62,0.00,,,0.00,WUHU21623XXSP,2013-02-13 06:37:00,
2013-02-13 00:42:00,46.2,34.3,29.57,East,90,0.0,0.0,63,0.00,,,0.00,WUHU21623XXSP,2013-02-13 06:42:00,
2013-02-13 00:47:00,46.2,34.7,29.56,East,90,0.0,0.0,64,0.02,,,0.02,WUHU21623XXSP,2013-02-13 06:47:00,
2013-02-13 00:52:00,46.0,34.5,29.55,ENE,67,0.0,0.0,64,0.02,,,0.02,WUHU21623XXSP,2013-02-13 06:52:00,
2013-02-13 00:58:00,46.0,34.9,29.54,North,0,0.0,0.0,65,0.02,,,0.02,WUHU21623XXSP,2013-02-13 06:58:00,
2013-02-13 01:02:00,45.9,34.7,29.55,NNW,337,0.0,0.0,65,0.02,,,0.02,WUHU21623XXSP,2013-02-13 07:02:00,
2013-02-13 01:07:00,45.7,34.6,29.54,North,0,0.0,0.0,65,0.02,,,0.02,WUHU21623XXSP,2013-02-13 07:07:00,
2013-02-13 01:12:00,45.7,34.9,29.54,NNE,22,0.0,0.0,66,0.02,,,0.02,WUHU21623XXSP,2013-02-13 07:12:00,
2013-02-13 01:17:00,45.7,34.9,29.54,NNE,22,0.0,0.0,66,0.02,,,0.02,WUHU21623XXSP,2013-02-13 07:17:00,
2013-02-13 01:22:00,45.7,34.9,29.54,North,0,0.0,0.0,66,0.02,,,0.02,WUHU21623XXSP,2013-02-13 07:22:00,
2013-02-13 01:27:00,45.5,34.8,29.54,NW,315,0.0,0.0,66,0.02,,,0.02,WUHU21623XXSP,2013-02-13 07:27:00,
2013-02-13 01:32:00,45.3,34.6,29.54,NW,315,0.0,0.0,66,0.02,,,0.02,WUHU21623XXSP,2013-02-13 07:32:00,
2013-02-13 01:37:00,45.3,35.0,29.54,NW,315,0.0,0.0,67,0.02,,,0.02,WUHU21623XXSP,2013-02-13 07:37:00,
2013-02-13 01:42:00,45.3,35.0,29.53,NW,315,0.0,0.0,67,0.02,,,0.02,WUHU21623XXSP,2013-02-13 07:42:00,
2013-02-13 01:47:00,45.3,35.0,29.53,NNW,337,0.0,0.0,67,0.00,,,0.02,WUHU21623XXSP,2013-02-13 07:47:00,
2013-02-13 01:53:00,45.1,35.2,29.53,NNW,337,0.0,0.0,68,0.00,,,0.02,WUHU21623XXSP,2013-02-13 07:53:00,
2013-02-13 01:58:00,45.1,35.2,29.53,NNW,337,0.0,0.0,68,0.00,,,0.02,WUHU21623XXSP,2013-02-13 07:58:00,
2013-02-13 02:03:00,45.1,35.2,29.53,NNW,337,1.6,1.6,68,0.00,,,0.02,WUHU21623XXSP,2013-02-13 08:03:00,
2013-02-13 02:08:00,45.1,35.2,29.53,North,0,0.0,2.5,68,0.00,,,0.02,WUHU21623XXSP,2013-02-13 08:08:00,
2013-02-13 02:13:00,45.1,35.2,29.52,North,0,0.0,8.1,68,0.00,,,0.02,WUHU21623XXSP,2013-02-13 08:13:00,
2013-02-13 02:18:00,45.1,35.2,29.51,NNE,22,0.0,8.1,68,0.00,,,0.02,WUHU21623XXSP,2013-02-13 08:18:00,
2013-02-13 02:23:00,45.0,35.0,29.49,NNE,22,0.0,4.9,68,0.00,,,0.02,WUHU21623XXSP,2013-02-13 08:23:00,
2013-02-13 02:28:00,45.0,35.4,29.49,NNW,337,0.0,4.9,69,0.00,,,0.02,WUHU21623XXSP,2013-02-13 08:28:00,
2013-02-13 02:33:00,45.0,35.4,29.51,SSW,202,0.0,2.2,69,0.00,,,0.02,WUHU21623XXSP,2013-02-13 08:33:00,
2013-02-13 02:38:00,45.0,35.4,29.51,SSW,202,0.0,1.8,69,0.00,,,0.02,WUHU21623XXSP,2013-02-13 08:38:00,
2013-02-13 02:43:00,45.0,35.4,29.50,SSW,202,0.0,0.0,69,0.02,,,0.04,WUHU21623XXSP,2013-02-13 08:43:00,
2013-02-13 02:48:00,44.8,35.6,29.49,South,180,0.0,0.0,70,0.02,,,0.04,WUHU21623XXSP,2013-02-13 08:48:00,
2013-02-13 02:53:00,45.0,35.8,29.50,South,180,0.0,0.0,70,0.02,,,0.04,WUHU21623XXSP,2013-02-13 08:53:00,
2013-02-13 02:58:00,44.8,35.6,29.50,SW,225,0.0,0.0,70,0.04,,,0.06,WUHU21623XXSP,2013-02-13 08:58:00,
2013-02-13 03:03:00,44.6,35.8,29.49,SW,225,0.0,0.0,71,0.04,,,0.06,WUHU21623XXSP,2013-02-13 09:03:00,
2013-02-13 03:08:00,44.6,35.8,29.49,SSW,202,0.0,0.0,71,0.04,,,0.06,WUHU21623XXSP,2013-02-13 09:08:00,
2013-02-13 03:13:00,44.6,35.8,29.49,NW,315,0.0,0.0,71,0.04,,,0.06,WUHU21623XXSP,2013-02-13 09:13:00,
2013-02-13 03:18:00,44.4,35.9,29.49,North,0,0.0,0.0,72,0.04,,,0.06,WUHU21623XXSP,2013-02-13 09:18:00,
2013-02-13 03:23:00,44.4,35.9,29.49,North,0,0.0,0.0,72,0.04,,,0.06,WUHU21623XXSP,2013-02-13 09:23:00,
2013-02-13 03:28:00,44.4,35.9,29.49,North,0,0.0,0.0,72,0.04,,,0.06,WUHU21623XXSP,2013-02-13 09:28:00,
2013-02-13 03:33:00,44.4,36.3,29.49,North,0,0.0,0.0,73,0.04,,,0.06,WUHU21623XXSP,2013-02-13 09:33:00,
2013-02-13 03:38:00,44.4,36.3,29.49,North,0,0.0,0.0,73,0.04,,,0.08,WUHU21623XXSP,2013-02-13 09:38:00,
2013-02-13 03:43:00,44.4,36.3,29.49,NNW,337,0.0,0.0,73,0.04,,,0.08,WUHU21623XXSP,2013-02-13 09:43:00,
2013-02-13 03:48:00,44.4,36.3,29.49,NNW,337,0.0,0.0,73,0.04,,,0.08,WUHU21623XXSP,2013-02-13 09:48:00,
2013-02-13 03:53:00,44.2,36.1,29.49,NNW,337,0.0,0.0,73,0.02,,,0.08,WUHU21623XXSP,2013-02-13 09:53:00,
2013-02-13 03:58:00,44.2,36.1,29.49,NNW,337,0.0,0.0,73,0.02,,,0.08,WUHU21623XXSP,2013-02-13 09:58:00,
2013-02-13 04:03:00,44.2,36.1,29.49,NNW,337,0.0,0.0,73,0.02,,,0.08,WUHU21623XXSP,2013-02-13 10:03:00,
2013-02-13 04:08:00,44.2,36.1,29.49,NW,315,0.0,0.0,73,0.02,,,0.08,WUHU21623XXSP,2013-02-13 10:08:00,
2013-02-13 04:13:00,44.1,35.9,29.49,NW,315,0.0,0.0,73,0.02,,,0.08,WUHU21623XXSP,2013-02-13 10:13:00,
2013-02-13 04:18:00,43.9,35.8,29.49,NW,315,0.0,0.0,73,0.04,,,0.10,WUHU21623XXSP,2013-02-13 10:18:00,
2013-02-13 04:23:00,43.9,36.1,29.49,NW,315,0.0,0.0,74,0.04,,,0.10,WUHU21623XXSP,2013-02-13 10:23:00,
2013-02-13 04:28:00,43.9,36.1,29.49,NW,315,0.0,0.0,74,0.04,,,0.10,WUHU21623XXSP,2013-02-13 10:28:00,
2013-02-13 04:33:00,43.7,35.9,29.49,NNW,337,0.0,0.0,74,0.04,,,0.10,WUHU21623XXSP,2013-02-13 10:33:00,
2013-02-13 04:38:00,43.7,35.9,29.48,WNW,292,0.0,2.7,74,0.02,,,0.10,WUHU21623XXSP,2013-02-13 10:38:00,
2013-02-13 04:43:00,43.5,35.8,29.49,NW,315,0.0,2.7,74,0.02,,,0.10,WUHU21623XXSP,2013-02-13 10:43:00,
2013-02-13 04:48:00,43.5,35.8,29.49,NW,315,0.0,1.8,74,0.02,,,0.10,WUHU21623XXSP,2013-02-13 10:48:00,
2013-02-13 04:53:00,43.5,36.1,29.49,NW,315,0.0,4.0,75,0.02,,,0.10,WUHU21623XXSP,2013-02-13 10:53:00,
2013-02-13 04:58:00,43.3,35.9,29.49,NNW,337,3.4,7.6,75,0.04,,,0.12,WUHU21623XXSP,2013-02-13 10:58:00,
2013-02-13 05:03:00,43.2,35.8,29.49,NW,315,0.0,7.6,75,0.04,,,0.12,WUHU21623XXSP,2013-02-13 11:03:00,
2013-02-13 05:08:00,43.0,35.9,29.50,NNW,337,2.5,6.9,76,0.04,,,0.12,WUHU21623XXSP,2013-02-13 11:08:00,
2013-02-13 05:13:00,42.8,35.7,29.49,NNW,337,0.0,6.9,76,0.02,,,0.12,WUHU21623XXSP,2013-02-13 11:13:00,
2013-02-13 05:18:00,42.6,35.6,29.49,NNW,337,0.0,6.7,76,0.02,,,0.12,WUHU21623XXSP,2013-02-13 11:18:00,
2013-02-13 05:23:00,42.6,35.6,29.49,NNW,337,0.0,3.8,76,0.02,,,0.12,WUHU21623XXSP,2013-02-13 11:23:00,
2013-02-13 05:28:00,42.6,35.6,29.50,NW,315,0.0,6.3,76,0.02,,,0.12,WUHU21623XXSP,2013-02-13 11:28:00,
2013-02-13 05:33:00,42.4,35.4,29.49,NW,315,2.7,6.3,76,0.02,,,0.12,WUHU21623XXSP,2013-02-13 11:33:00,
2013-02-13 05:38:00,42.1,35.3,29.49,NNW,337,2.2,12.5,77,0.02,,,0.12,WUHU21623XXSP,2013-02-13 11:38:00,
2013-02-13 05:43:00,42.1,35.3,29.50,NW,315,3.4,12.5,77,0.04,,,0.14,WUHU21623XXSP,2013-02-13 11:43:00,
2013-02-13 05:48:00,41.7,35.0,29.50,NNW,337,9.2,13.0,77,0.04,,,0.14,WUHU21623XXSP,2013-02-13 11:48:00,
2013-02-13 05:53:00,41.5,34.8,29.50,NW,315,0.0,13.0,77,0.02,,,0.14,WUHU21623XXSP,2013-02-13 11:53:00,
2013-02-13 05:58:00,41.5,34.8,29.51,WNW,292,1.3,11.0,77,0.02,,,0.14,WUHU21623XXSP,2013-02-13 11:58:00,
2013-02-13 06:03:00,41.4,34.6,29.51,West,270,0.0,11.0,77,0.02,,,0.14,WUHU21623XXSP,2013-02-13 12:03:00,
2013-02-13 06:08:00,41.2,34.8,29.52,North,0,4.5,10.5,78,0.02,,,0.14,WUHU21623XXSP,2013-02-13 12:08:00,
2013-02-13 06:13:00,41.2,34.8,29.52,NNW,337,2.7,11.6,78,0.04,,,0.16,WUHU21623XXSP,2013-02-13 12:13:00,
2013-02-13 06:18:00,41.0,34.6,29.52,NNW,337,4.3,11.6,78,0.04,,,0.16,WUHU21623XXSP,2013-02-13 12:18:00,
2013-02-13 06:23:00,40.8,34.4,29.52,NNW,337,0.0,9.2,78,0.04,,,0.16,WUHU21623XXSP,2013-02-13 12:23:00,
2013-02-13 06:28:00,40.8,34.4,29.53,NNW,337,6.7,9.2,78,0.04,,,0.16,WUHU21623XXSP,2013-02-13 12:28:00,
2013-02-13 06:33:00,40.6,34.3,29.53,NNW,337,2.9,11.9,78,0.04,,,0.16,WUHU21623XXSP,2013-02-13 12:33:00,
2013-02-13 06:38:00,40.6,34.6,29.53,NW,315,14.5,14.5,79,0.04,,,0.16,WUHU21623XXSP,2013-02-13 12:38:00,
2013-02-13 06:43:00,40.5,34.4,29.53,NW,315,7.8,14.5,79,0.02,,,0.16,WUHU21623XXSP,2013-02-13 12:43:00,
2013-02-13 06:48:00,40.3,34.3,29.52,North,0,3.1,9.8,79,0.02,,,0.16,WUHU21623XXSP,2013-02-13 12:48:00,
2013-02-13 06:53:00,40.3,34.3,29.52,NNW,337,6.7,11.2,79,0.04,,,0.18,WUHU21623XXSP,2013-02-13 12:53:00,
2013-02-13 06:58:00,40.1,34.1,29.52,NNW,337,7.2,17.2,79,0.04,,,0.18,WUHU21623XXSP,2013-02-13 12:58:00,
2013-02-13 07:03:00,39.9,33.9,29.52,NW,315,0.9,17.2,79,0.04,,,0.18,WUHU21623XXSP,2013-02-13 13:03:00,
2013-02-13 07:08:00,39.7,33.8,29.52,NNW,337,10.1,13.6,79,0.04,,,0.18,WUHU21623XXSP,2013-02-13 13:08:00,
2013-02-13 07:13:00,39.7,33.8,29.52,NNW,337,0.0,10.7,79,0.02,,,0.18,WUHU21623XXSP,2013-02-13 13:13:00,
2013-02-13 07:18:00,39.6,33.6,29.52,WNW,292,9.4,13.9,79,0.02,,,0.18,WUHU21623XXSP,2013-02-13 13:18:00,
2013-02-13 07:23:00,39.6,33.6,29.52,North,0,2.7,13.9,79,0.02,,,0.18,WUHU21623XXSP,2013-02-13 13:23:00,
2013-02-13 07:28:00,39.4,33.4,29.52,North,0,7.2,12.8,79,0.02,,,0.18,WUHU21623XXSP,2013-02-13 13:28:00,
2013-02-13 07:33:00,39.4,33.4,29.52,NNW,337,2.0,12.8,79,0.02,,,0.18,WUHU21623XXSP,2013-02-13 13:33:00,
2013-02-13 07:38:00,39.0,33.1,29.52,NNW,337,0.0,10.5,79,0.02,,,0.18,WUHU21623XXSP,2013-02-13 13:38:00,
2013-02-13 07:43:00,39.0,33.1,29.52,North,0,0.0,12.8,79,0.02,,,0.18,WUHU21623XXSP,2013-02-13 13:43:00,
2013-02-13 07:48:00,39.0,33.1,29.53,NNW,337,4.7,12.8,79,0.00,,,0.18,WUHU21623XXSP,2013-02-13 13:48:00,
2013-02-13 07:53:00,39.0,33.1,29.53,NNW,337,5.6,10.7,79,0.00,,,0.18,WUHU21623XXSP,2013-02-13 13:53:00,
2013-02-13 07:58:00,39.0,33.1,29.54,NW,315,9.2,9.4,79,0.00,,,0.18,WUHU21623XXSP,2013-02-13 13:58:00,
2013-02-13 08:03:00,39.0,33.1,29.54,WNW,292,3.4,10.3,79,0.00,,,0.18,WUHU21623XXSP,2013-02-13 14:03:00,
2013-02-13 08:12:00,38.8,32.9,29.54,NNW,337,0.0,9.2,79,0.00,,,0.18,WUHU21623XXSP,2013-02-13 14:12:00,
2013-02-13 08:17:00,38.8,32.9,29.55,North,0,3.8,6.7,79,0.00,,,0.18,WUHU21623XXSP,2013-02-13 14:17:00,
2013-02-13 08:22:00,38.8,32.9,29.55,NNW,337,8.1,10.3,79,0.00,,,0.18,WUHU21623XXSP,2013-02-13 14:22:00,
2013-02-13 08:27:00,38.5,32.6,29.56,North,0,4.3,12.8,79,0.00,,,0.18,WUHU21623XXSP,2013-02-13 14:27:00,
2013-02-13 08:32:00,38.5,32.6,29.56,West,270,5.8,12.8,79,0.00,,,0.18,WUHU21623XXSP,2013-02-13 14:32:00,
2013-02-13 08:37:00,38.5,32.6,29.56,NNW,337,4.0,13.0,79,0.00,,,0.18,WUHU21623XXSP,2013-02-13 14:37:00,
2013-02-13 08:42:00,38.5,32.6,29.57,NW,315,0.0,13.0,79,0.00,,,0.18,WUHU21623XXSP,2013-02-13 14:42:00,
2013-02-13 08:47:00,38.3,32.4,29.57,NW,315,5.1,13.2,79,0.00,,,0.18,WUHU21623XXSP,2013-02-13 14:47:00,
2013-02-13 08:52:00,38.1,32.2,29.56,NW,315,6.0,13.6,79,0.02,,,0.20,WUHU21623XXSP,2013-02-13 14:52:00,
2013-02-13 08:57:00,37.9,32.0,29.57,NNW,337,5.6,15.4,79,0.02,,,0.20,WUHU21623XXSP,2013-02-13 14:57:00,
2013-02-13 09:02:00,37.9,32.0,29.58,North,0,4.3,15.4,79,0.02,,,0.20,WUHU21623XXSP,2013-02-13 15:02:00,
2013-02-13 09:07:00,37.9,32.4,29.58,NNW,337,9.2,10.3,80,0.02,,,0.20,WUHU21623XXSP,2013-02-13 15:07:00,
2013-02-13 09:12:00,37.9,32.4,29.58,NW,315,9.6,10.3,80,0.02,,,0.20,WUHU21623XXSP,2013-02-13 15:12:00,
2013-02-13 09:17:00,37.9,32.4,29.58,NW,315,0.0,11.2,80,0.02,,,0.20,WUHU21623XXSP,2013-02-13 15:17:00,
2013-02-13 09:22:00,37.9,32.4,29.59,NW,315,0.0,11.4,80,0.02,,,0.20,WUHU21623XXSP,2013-02-13 15:22:00,
2013-02-13 09:27:00,38.1,32.5,29.59,NW,315,1.1,11.4,80,0.02,,,0.20,WUHU21623XXSP,2013-02-13 15:27:00,
2013-02-13 09:32:00,38.3,33.0,29.60,NNW,337,3.4,13.0,81,0.02,,,0.20,WUHU21623XXSP,2013-02-13 15:32:00,
2013-02-13 09:37:00,38.3,33.0,29.60,WNW,292,1.8,13.0,81,0.02,,,0.20,WUHU21623XXSP,2013-02-13 15:37:00,
2013-02-13 09:42:00,38.5,33.2,29.61,WNW,292,0.0,8.7,81,0.02,,,0.20,WUHU21623XXSP,2013-02-13 15:42:00,
2013-02-13 09:47:00,38.5,33.2,29.61,NW,315,3.8,11.6,81,0.02,,,0.20,WUHU21623XXSP,2013-02-13 15:47:00,
2013-02-13 09:52:00,38.8,33.5,29.61,NNW,337,9.2,11.6,81,0.00,,,0.20,WUHU21623XXSP,2013-02-13 15:52:00,
2013-02-13 09:57:00,38.8,33.5,29.61,NW,315,3.8,11.6,81,0.00,,,0.20,WUHU21623XXSP,2013-02-13 15:57:00,
2013-02-13 10:02:00,38.8,33.5,29.61,NNW,337,0.2,12.5,81,0.02,,,0.22,WUHU21623XXSP,2013-02-13 16:02:00,
2013-02-13 10:07:00,39.0,33.7,29.61,WNW,292,4.0,17.2,81,0.02,,,0.22,WUHU21623XXSP,2013-02-13 16:07:00,
2013-02-13 10:12:00,39.0,33.7,29.61,NNW,337,5.8,17.2,81,0.02,,,0.22,WUHU21623XXSP,2013-02-13 16:12:00,
2013-02-13 10:17:00,39.0,33.7,29.61,NNW,337,0.9,12.1,81,0.02,,,0.22,WUHU21623XXSP,2013-02-13 16:17:00,
2013-02-13 10:22:00,39.0,33.7,29.61,NW,315,1.6,10.7,81,0.02,,,0.22,WUHU21623XXSP,2013-02-13 16:22:00,
2013-02-13 10:27:00,39.0,33.7,29.61,North,0,5.1,8.9,81,0.02,,,0.22,WUHU21623XXSP,2013-02-13 16:27:00,
2013-02-13 10:32:00,39.4,34.1,29.61,NW,315,6.5,10.5,81,0.02,,,0.22,WUHU21623XXSP,2013-02-13 16:32:00,
2013-02-13 10:37:00,39.4,34.1,29.61,NNW,337,6.5,10.5,81,0.02,,,0.22,WUHU21623XXSP,2013-02-13 16:37:00,
2013-02-13 10:42:00,39.6,34.2,29.61,NNW,337,7.4,9.4,81,0.02,,,0.22,WUHU21623XXSP,2013-02-13 16:42:00,
2013-02-13 10:47:00,39.7,34.4,29.62,NNW,337,8.9,9.4,81,0.02,,,0.22,WUHU21623XXSP,2013-02-13 16:47:00,
2013-02-13 10:52:00,39.7,34.4,29.62,NW,315,8.7,14.3,81,0.02,,,0.22,WUHU21623XXSP,2013-02-13 16:52:00,
2013-02-13 10:57:00,39.7,34.4,29.62,NW,315,3.6,18.8,81,0.00,,,0.22,WUHU21623XXSP,2013-02-13 16:57:00,
2013-02-13 11:02:00,39.9,34.6,29.62,NW,315,2.9,18.8,81,0.00,,,0.22,WUHU21623XXSP,2013-02-13 17:02:00,
2013-02-13 11:07:00,39.9,34.3,29.63,WNW,292,3.1,14.3,80,0.00,,,0.22,WUHU21623XXSP,2013-02-13 17:07:00,
2013-02-13 11:12:00,39.9,34.3,29.64,NW,315,0.0,14.3,80,0.00,,,0.22,WUHU21623XXSP,2013-02-13 17:12:00,
2013-02-13 11:17:00,39.9,34.3,29.64,WNW,292,4.0,10.7,80,0.00,,,0.22,WUHU21623XXSP,2013-02-13 17:17:00,
2013-02-13 11:22:00,40.1,34.4,29.64,NW,315,1.8,10.7,80,0.00,,,0.22,WUHU21623XXSP,2013-02-13 17:22:00,
2013-02-13 11:27:00,40.1,34.4,29.64,NNW,337,5.4,7.8,80,0.00,,,0.22,WUHU21623XXSP,2013-02-13 17:27:00,
2013-02-13 11:32:00,40.1,34.1,29.64,NNW,337,1.1,7.8,79,0.00,,,0.22,WUHU21623XXSP,2013-02-13 17:32:00,
2013-02-13 11:37:00,40.3,34.3,29.64,NW,315,8.1,12.5,79,0.00,,,0.22,WUHU21623XXSP,2013-02-13 17:37:00,
2013-02-13 11:42:00,40.3,34.3,29.64,NW,315,5.6,12.5,79,0.00,,,0.22,WUHU21623XXSP,2013-02-13 17:42:00,
2013-02-13 11:47:00,40.3,34.3,29.63,NNW,337,4.0,12.3,79,0.00,,,0.22,WUHU21623XXSP,2013-02-13 17:47:00,
2013-02-13 11:52:00,40.3,34.3,29.63,NW,315,10.3,16.1,79,0.00,,,0.22,WUHU21623XXSP,2013-02-13 17:52:00,
2013-02-13 11:57:00,40.3,33.9,29.63,WNW,292,0.0,16.1,78,0.00,,,0.22,WUHU21623XXSP,2013-02-13 17:57:00,
2013-02-13 12:02:00,40.3,33.9,29.63,NW,315,4.9,14.5,78,0.00,,,0.22,WUHU21623XXSP,2013-02-13 18:02:00,
2013-02-13 12:07:00,40.3,33.9,29.63,North,0,11.2,14.5,78,0.00,,,0.22,WUHU21623XXSP,2013-02-13 18:07:00,
2013-02-13 12:12:00,40.3,33.9,29.64,WNW,292,4.9,15.2,78,0.00,,,0.22,WUHU21623XXSP,2013-02-13 18:12:00,
2013-02-13 12:17:00,40.3,33.9,29.63,WNW,292,5.8,15.2,78,0.00,,,0.22,WUHU21623XXSP,2013-02-13 18:17:00,
2013-02-13 12:22:00,40.1,33.8,29.63,NW,315,10.3,13.2,78,0.00,,,0.22,WUHU21623XXSP,2013-02-13 18:22:00,
2013-02-13 12:27:00,40.1,33.8,29.64,NW,315,8.1,11.6,78,0.00,,,0.22,WUHU21623XXSP,2013-02-13 18:27:00,
2013-02-13 12:32:00,40.1,33.8,29.63,WNW,292,0.0,11.6,78,0.00,,,0.22,WUHU21623XXSP,2013-02-13 18:32:00,
2013-02-13 12:37:00,40.3,33.8,29.63,NW,315,7.8,12.8,78,0.00,,,0.22,WUHU21623XXSP,2013-02-13 18:37:00,
2013-02-13 12:42:00,40.3,33.9,29.63,NW,315,3.1,12.8,78,0.00,,,0.22,WUHU21623XXSP,2013-02-13 18:42:00,
2013-02-13 12:47:00,40.3,33.9,29.63,NW,315,8.1,14.1,78,0.00,,,0.22,WUHU21623XXSP,2013-02-13 18:47:00,
2013-02-13 12:52:00,40.3,33.9,29.64,West,270,5.4,14.8,78,0.00,,,0.22,WUHU21623XXSP,2013-02-13 18:52:00,
2013-02-13 12:57:00,40.5,34.1,29.64,WNW,292,4.0,14.8,78,0.00,,,0.22,WUHU21623XXSP,2013-02-13 18:57:00,
2013-02-13 13:02:00,40.3,33.9,29.64,WNW,292,3.1,13.4,78,0.00,,,0.22,WUHU21623XXSP,2013-02-13 19:02:00,
2013-02-13 13:07:00,40.3,33.9,29.64,NNW,337,8.9,11.0,78,0.00,,,0.22,WUHU21623XXSP,2013-02-13 19:07:00,
2013-02-13 13:12:00,40.1,33.4,29.64,NW,315,2.2,13.2,77,0.00,,,0.22,WUHU21623XXSP,2013-02-13 19:12:00,
2013-02-13 13:17:00,39.9,33.3,29.64,WNW,292,9.8,13.2,77,0.00,,,0.22,WUHU21623XXSP,2013-02-13 19:17:00,
2013-02-13 13:22:00,39.9,33.3,29.64,NW,315,11.0,11.6,77,0.00,,,0.22,WUHU21623XXSP,2013-02-13 19:22:00,
2013-02-13 13:27:00,39.9,33.3,29.64,WNW,292,0.0,11.0,77,0.00,,,0.22,WUHU21623XXSP,2013-02-13 19:27:00,
2013-02-13 13:32:00,39.9,33.3,29.64,NW,315,8.5,10.7,77,0.00,,,0.22,WUHU21623XXSP,2013-02-13 19:32:00,
2013-02-13 13:37:00,39.9,33.6,29.64,West,270,0.0,11.0,78,0.00,,,0.22,WUHU21623XXSP,2013-02-13 19:37:00,
2013-02-13 13:42:00,39.9,33.6,29.64,WNW,292,0.7,11.0,78,0.00,,,0.22,WUHU21623XXSP,2013-02-13 19:42:00,
2013-02-13 13:47:00,40.1,33.8,29.64,NNW,337,3.8,8.5,78,0.00,,,0.22,WUHU21623XXSP,2013-02-13 19:47:00,
2013-02-13 13:52:00,40.3,33.6,29.64,NNW,337,7.8,10.1,77,0.00,,,0.22,WUHU21623XXSP,2013-02-13 19:52:00,
2013-02-13 13:57:00,40.3,33.6,29.65,NW,315,0.0,13.0,77,0.00,,,0.22,WUHU21623XXSP,2013-02-13 19:57:00,
2013-02-13 14:02:00,40.3,33.6,29.64,NNW,337,7.2,13.0,77,0.00,,,0.22,WUHU21623XXSP,2013-02-13 20:02:00,
2013-02-13 14:07:00,40.1,33.4,29.65,NW,315,6.9,10.7,77,0.00,,,0.22,WUHU21623XXSP,2013-02-13 20:07:00,
2013-02-13 14:12:00,40.1,33.4,29.65,NW,315,10.1,15.0,77,0.00,,,0.22,WUHU21623XXSP,2013-02-13 20:12:00,
2013-02-13 14:17:00,40.1,33.4,29.65,NW,315,0.0,15.0,77,0.00,,,0.22,WUHU21623XXSP,2013-02-13 20:17:00,
2013-02-13 14:22:00,39.9,33.3,29.65,WNW,292,0.0,11.4,77,0.00,,,0.22,WUHU21623XXSP,2013-02-13 20:22:00,
2013-02-13 14:27:00,39.9,33.3,29.65,West,270,0.0,9.6,77,0.00,,,0.22,WUHU21623XXSP,2013-02-13 20:27:00,
2013-02-13 14:32:00,39.9,33.3,29.65,NW,315,5.1,7.2,77,0.00,,,0.22,WUHU21623XXSP,2013-02-13 20:32:00,
2013-02-13 14:37:00,39.9,33.3,29.65,WNW,292,0.0,8.3,77,0.00,,,0.22,WUHU21623XXSP,2013-02-13 20:37:00,
2013-02-13 14:42:00,39.9,33.3,29.65,NW,315,0.0,8.9,77,0.00,,,0.22,WUHU21623XXSP,2013-02-13 20:42:00,
2013-02-13 14:47:00,40.1,33.4,29.65,NW,315,7.8,8.9,77,0.00,,,0.22,WUHU21623XXSP,2013-02-13 20:47:00,
2013-02-13 14:52:00,40.1,33.4,29.66,WNW,292,0.0,7.8,77,0.00,,,0.22,WUHU21623XXSP,2013-02-13 20:52:00,
2013-02-13 14:57:00,40.1,33.4,29.66,West,270,0.0,4.0,77,0.00,,,0.22,WUHU21623XXSP,2013-02-13 20:57:00,
2013-02-13 15:02:00,40.1,33.4,29.66,West,270,0.0,4.9,77,0.00,,,0.22,WUHU21623XXSP,2013-02-13 21:02:00,
2013-02-13 15:07:00,40.3,33.6,29.66,West,270,0.0,4.9,77,0.00,,,0.22,WUHU21623XXSP,2013-02-13 21:07:00,
2013-02-13 15:12:00,40.3,33.6,29.66,WSW,247,0.0,0.0,77,0.00,,,0.22,WUHU21623XXSP,2013-02-13 21:12:00,
2013-02-13 15:17:00,40.3,33.6,29.66,West,270,4.9,4.9,77,0.00,,,0.22,WUHU21623XXSP,2013-02-13 21:17:00,
2013-02-13 15:22:00,40.3,33.3,29.66,West,270,0.0,4.9,76,0.00,,,0.22,WUHU21623XXSP,2013-02-13 21:22:00,
2013-02-13 15:27:00,40.3,33.3,29.66,West,270,0.0,4.9,76,0.00,,,0.22,WUHU21623XXSP,2013-02-13 21:27:00,
2013-02-13 15:32:00,40.5,33.4,29.66,NW,315,0.0,2.2,76,0.00,,,0.22,WUHU21623XXSP,2013-02-13 21:32:00,
2013-02-13 15:37:00,40.6,33.9,29.67,West,270,0.0,2.2,77,0.00,,,0.22,WUHU21623XXSP,2013-02-13 21:37:00,
2013-02-13 15:42:00,40.6,33.9,29.67,West,270,0.0,0.0,77,0.00,,,0.22,WUHU21623XXSP,2013-02-13 21:42:00,
2013-02-13 15:47:00,40.6,33.9,29.67,West,270,0.0,0.0,77,0.00,,,0.22,WUHU21623XXSP,2013-02-13 21:47:00,
2013-02-13 15:52:00,40.8,33.8,29.67,WSW,247,0.0,3.1,76,0.00,,,0.22,WUHU21623XXSP,2013-02-13 21:52:00,
2013-02-13 15:57:00,40.8,33.8,29.67,West,270,0.0,3.1,76,0.00,,,0.22,WUHU21623XXSP,2013-02-13 21:57:00,
2013-02-13 16:02:00,40.8,33.8,29.67,WSW,247,0.0,1.1,76,0.00,,,0.22,WUHU21623XXSP,2013-02-13 22:02:00,
2013-02-13 16:07:00,40.8,33.8,29.67,West,270,0.0,1.1,76,0.00,,,0.22,WUHU21623XXSP,2013-02-13 22:07:00,
2013-02-13 16:12:00,40.8,33.8,29.67,WSW,247,0.0,4.0,76,0.00,,,0.22,WUHU21623XXSP,2013-02-13 22:12:00,
2013-02-13 16:17:00,41.2,34.1,29.67,SW,225,0.0,4.0,76,0.00,,,0.22,WUHU21623XXSP,2013-02-13 22:17:00,
2013-02-13 16:22:00,41.2,33.8,29.67,West,270,0.0,2.5,75,0.00,,,0.22,WUHU21623XXSP,2013-02-13 22:22:00,
2013-02-13 16:27:00,41.2,33.8,29.67,West,270,0.0,2.2,75,0.00,,,0.22,WUHU21623XXSP,2013-02-13 22:27:00,
2013-02-13 16:32:00,41.2,33.8,29.67,West,270,0.0,2.2,75,0.00,,,0.22,WUHU21623XXSP,2013-02-13 22:32:00,
2013-02-13 16:37:00,41.0,33.6,29.67,WSW,247,0.0,1.6,75,0.00,,,0.22,WUHU21623XXSP,2013-02-13 22:37:00,
2013-02-13 16:42:00,41.0,33.6,29.67,WSW,247,0.0,1.6,75,0.00,,,0.22,WUHU21623XXSP,2013-02-13 22:42:00,
2013-02-13 16:47:00,41.0,33.6,29.67,SW,225,0.0,0.0,75,0.00,,,0.22,WUHU21623XXSP,2013-02-13 22:47:00,
2013-02-13 16:52:00,41.0,33.6,29.67,WSW,247,0.0,4.7,75,0.00,,,0.22,WUHU21623XXSP,2013-02-13 22:52:00,
2013-02-13 16:57:00,40.8,33.4,29.67,West,270,0.0,4.7,75,0.00,,,0.22,WUHU21623XXSP,2013-02-13 22:57:00,
2013-02-13 17:02:00,40.8,33.4,29.67,West,270,0.0,0.0,75,0.00,,,0.22,WUHU21623XXSP,2013-02-13 23:02:00,
2013-02-13 17:07:00,40.8,33.4,29.68,West,270,0.0,0.0,75,0.00,,,0.22,WUHU21623XXSP,2013-02-13 23:07:00,
2013-02-13 17:12:00,40.8,33.4,29.69,WSW,247,0.0,0.0,75,0.00,,,0.22,WUHU21623XXSP,2013-02-13 23:12:00,
2013-02-13 17:17:00,40.8,33.4,29.69,SW,225,0.0,0.0,75,0.00,,,0.22,WUHU21623XXSP,2013-02-13 23:17:00,
2013-02-13 17:22:00,40.8,33.4,29.69,West,270,0.0,0.0,75,0.00,,,0.22,WUHU21623XXSP,2013-02-13 23:22:00,
2013-02-13 17:27:00,40.8,33.4,29.69,SSW,202,3.6,6.0,75,0.00,,,0.22,WUHU21623XXSP,2013-02-13 23:27:00,
2013-02-13 17:32:00,40.8,33.4,29.69,South,180,0.0,6.0,75,0.00,,,0.22,WUHU21623XXSP,2013-02-13 23:32:00,
2013-02-13 17:37:00,40.8,33.4,29.69,West,270,0.0,5.4,75,0.00,,,0.22,WUHU21623XXSP,2013-02-13 23:37:00,
2013-02-13 17:42:00,40.8,33.4,29.70,West,270,0.0,5.1,75,0.00,,,0.22,WUHU21623XXSP,2013-02-13 23:42:00,
2013-02-13 17:47:00,40.8,33.4,29.69,West,270,0.0,0.0,75,0.00,,,0.22,WUHU21623XXSP,2013-02-13 23:47:00,
2013-02-13 17:52:00,40.8,33.4,29.70,SW,225,0.0,0.0,75,0.00,,,0.22,WUHU21623XXSP,2013-02-13 23:52:00,
2013-02-13 17:57:00,40.8,33.4,29.70,SW,225,0.0,0.0,75,0.00,,,0.22,WUHU21623XXSP,2013-02-13 23:57:00,
2013-02-13 18:02:00,40.8,33.4,29.70,SW,225,0.0,0.0,75,0.00,,,0.22,WUHU21623XXSP,2013-02-14 00:02:00,
2013-02-13 18:07:00,40.8,33.4,29.70,SW,225,0.0,0.0,75,0.00,,,0.22,WUHU21623XXSP,2013-02-14 00:07:00,
2013-02-13 18:12:00,40.8,33.4,29.70,West,270,0.0,0.0,75,0.00,,,0.22,WUHU21623XXSP,2013-02-14 00:12:00,
2013-02-13 18:17:00,40.8,33.4,29.70,WSW,247,0.0,0.0,75,0.00,,,0.22,WUHU21623XXSP,2013-02-14 00:17:00,
2013-02-13 18:22:00,40.8,33.4,29.71,WSW,247,0.0,0.0,75,0.00,,,0.22,WUHU21623XXSP,2013-02-14 00:22:00,
2013-02-13 18:27:00,40.8,33.4,29.71,WSW,247,0.0,0.0,75,0.00,,,0.22,WUHU21623XXSP,2013-02-14 00:27:00,
2013-02-13 18:32:00,40.8,33.4,29.71,WSW,247,0.0,0.0,75,0.00,,,0.22,WUHU21623XXSP,2013-02-14 00:32:00,
2013-02-13 18:37:00,40.8,33.4,29.71,WSW,247,0.0,0.0,75,0.00,,,0.22,WUHU21623XXSP,2013-02-14 00:37:00,
2013-02-13 18:42:00,40.8,33.4,29.71,WSW,247,0.0,0.0,75,0.00,,,0.22,WUHU21623XXSP,2013-02-14 00:42:00,
2013-02-13 18:47:00,40.8,33.4,29.71,WSW,247,0.0,0.0,75,0.00,,,0.22,WUHU21623XXSP,2013-02-14 00:47:00,
2013-02-13 18:52:00,40.8,33.4,29.71,SW,225,0.0,0.0,75,0.00,,,0.22,WUHU21623XXSP,2013-02-14 00:52:00,
2013-02-13 18:57:00,40.8,33.4,29.71,SW,225,0.0,0.0,75,0.00,,,0.22,WUHU21623XXSP,2013-02-14 00:57:00,
2013-02-13 19:02:00,40.8,33.4,29.71,SW,225,0.0,0.0,75,0.00,,,0.22,WUHU21623XXSP,2013-02-14 01:02:00,
2013-02-13 19:07:00,40.8,33.4,29.71,SW,225,0.0,0.0,75,0.00,,,0.22,WUHU21623XXSP,2013-02-14 01:07:00,
2013-02-13 19:12:00,40.8,33.4,29.71,SW,225,0.0,0.0,75,0.00,,,0.22,WUHU21623XXSP,2013-02-14 01:12:00,
2013-02-13 19:17:00,40.8,33.4,29.71,SW,225,0.0,0.0,75,0.00,,,0.22,WUHU21623XXSP,2013-02-14 01:17:00,
2013-02-13 19:22:00,40.8,33.8,29.71,SW,225,0.0,0.0,76,0.00,,,0.22,WUHU21623XXSP,2013-02-14 01:22:00,
2013-02-13 19:27:00,40.8,33.8,29.71,SW,225,0.0,0.0,76,0.00,,,0.22,WUHU21623XXSP,2013-02-14 01:27:00,
2013-02-13 19:32:00,40.8,33.8,29.72,SW,225,0.0,0.0,76,0.00,,,0.22,WUHU21623XXSP,2013-02-14 01:32:00,
2013-02-13 19:37:00,40.8,33.8,29.72,SW,225,0.0,0.0,76,0.00,,,0.22,WUHU21623XXSP,2013-02-14 01:37:00,
2013-02-13 19:42:00,40.8,33.8,29.72,SW,225,0.0,0.0,76,0.00,,,0.22,WUHU21623XXSP,2013-02-14 01:42:00,
2013-02-13 19:47:00,40.8,33.8,29.72,SW,225,0.0,0.0,76,0.00,,,0.22,WUHU21623XXSP,2013-02-14 01:47:00,
2013-02-13 19:52:00,40.6,33.6,29.72,SW,225,0.0,0.0,76,0.00,,,0.22,WUHU21623XXSP,2013-02-14 01:52:00,
2013-02-13 19:57:00,40.6,33.6,29.72,SW,225,0.0,0.0,76,0.00,,,0.22,WUHU21623XXSP,2013-02-14 01:57:00,
2013-02-13 20:02:00,40.6,33.6,29.72,SW,225,0.0,0.0,76,0.00,,,0.22,WUHU21623XXSP,2013-02-14 02:02:00,
2013-02-13 20:07:00,40.6,33.6,29.73,SW,225,0.0,0.0,76,0.00,,,0.22,WUHU21623XXSP,2013-02-14 02:07:00,
2013-02-13 20:12:00,40.6,33.6,29.73,SW,225,0.0,0.0,76,0.00,,,0.22,WUHU21623XXSP,2013-02-14 02:12:00,
2013-02-13 20:17:00,40.6,33.6,29.73,SW,225,0.0,0.0,76,0.00,,,0.22,WUHU21623XXSP,2013-02-14 02:17:00,
2013-02-13 20:22:00,40.5,33.4,29.73,SW,225,0.0,0.0,76,0.00,,,0.22,WUHU21623XXSP,2013-02-14 02:22:00,
2013-02-13 20:27:00,40.5,33.4,29.73,SW,225,0.0,0.0,76,0.00,,,0.22,WUHU21623XXSP,2013-02-14 02:27:00,
2013-02-13 20:32:00,40.3,33.3,29.73,SW,225,0.0,0.0,76,0.00,,,0.22,WUHU21623XXSP,2013-02-14 02:32:00,
2013-02-13 20:37:00,40.3,33.3,29.73,SW,225,0.0,0.0,76,0.00,,,0.22,WUHU21623XXSP,2013-02-14 02:37:00,
2013-02-13 20:42:00,40.3,33.3,29.73,SW,225,0.0,0.0,76,0.00,,,0.22,WUHU21623XXSP,2013-02-14 02:42:00,
2013-02-13 20:47:00,40.1,33.1,29.73,SW,225,0.0,0.0,76,0.00,,,0.22,WUHU21623XXSP,2013-02-14 02:47:00,
2013-02-13 20:52:00,39.9,32.9,29.73,SW,225,0.0,0.0,76,0.00,,,0.22,WUHU21623XXSP,2013-02-14 02:52:00,
2013-02-13 20:57:00,39.9,32.9,29.74,SW,225,0.0,0.0,76,0.00,,,0.22,WUHU21623XXSP,2013-02-14 02:57:00,
2013-02-13 21:02:00,39.9,32.9,29.74,SW,225,0.0,0.0,76,0.00,,,0.22,WUHU21623XXSP,2013-02-14 03:02:00,
2013-02-13 21:07:00,39.9,32.9,29.74,SW,225,0.0,0.0,76,0.00,,,0.22,WUHU21623XXSP,2013-02-14 03:07:00,
2013-02-13 21:12:00,39.7,32.8,29.74,SW,225,0.0,0.0,76,0.00,,,0.22,WUHU21623XXSP,2013-02-14 03:12:00,
2013-02-13 21:17:00,39.7,32.8,29.74,SW,225,0.0,0.0,76,0.00,,,0.22,WUHU21623XXSP,2013-02-14 03:17:00,
2013-02-13 21:22:00,39.7,32.8,29.74,SW,225,0.0,0.0,76,0.00,,,0.22,WUHU21623XXSP,2013-02-14 03:22:00,
2013-02-13 21:27:00,39.7,33.1,29.74,SW,225,0.0,0.0,77,0.00,,,0.22,WUHU21623XXSP,2013-02-14 03:27:00,
2013-02-13 21:32:00,39.6,32.9,29.74,SW,225,0.0,0.0,77,0.00,,,0.22,WUHU21623XXSP,2013-02-14 03:32:00,
2013-02-13 21:37:00,39.4,32.8,29.74,SW,225,0.0,0.0,77,0.00,,,0.22,WUHU21623XXSP,2013-02-14 03:37:00,
2013-02-13 21:42:00,39.4,32.8,29.74,SW,225,0.0,0.0,77,0.00,,,0.22,WUHU21623XXSP,2013-02-14 03:42:00,
2013-02-13 21:47:00,39.4,32.8,29.74,SW,225,0.0,0.0,77,0.00,,,0.22,WUHU21623XXSP,2013-02-14 03:47:00,
2013-02-13 21:52:00,39.2,32.6,29.74,SW,225,0.0,0.0,77,0.00,,,0.22,WUHU21623XXSP,2013-02-14 03:52:00,
2013-02-13 21:57:00,39.0,32.4,29.74,SW,225,0.0,0.0,77,0.00,,,0.22,WUHU21623XXSP,2013-02-14 03:57:00,
2013-02-13 22:02:00,39.0,32.4,29.74,SW,225,0.0,0.0,77,0.00,,,0.22,WUHU21623XXSP,2013-02-14 04:02:00,
2013-02-13 22:07:00,38.8,32.2,29.75,SW,225,0.0,0.0,77,0.00,,,0.22,WUHU21623XXSP,2013-02-14 04:07:00,
2013-02-13 22:12:00,38.8,32.2,29.75,SW,225,0.0,0.0,77,0.00,,,0.22,WUHU21623XXSP,2013-02-14 04:12:00,
2013-02-13 22:17:00,38.5,31.9,29.75,SW,225,0.0,0.0,77,0.00,,,0.22,WUHU21623XXSP,2013-02-14 04:17:00,
2013-02-13 22:22:00,38.5,31.9,29.75,SW,225,0.0,0.0,77,0.00,,,0.22,WUHU21623XXSP,2013-02-14 04:22:00,
2013-02-13 22:27:00,38.3,31.7,29.75,SW,225,0.0,0.0,77,0.00,,,0.22,WUHU21623XXSP,2013-02-14 04:27:00,
2013-02-13 22:32:00,38.1,31.5,29.75,SW,225,0.0,0.0,77,0.00,,,0.22,WUHU21623XXSP,2013-02-14 04:32:00,
2013-02-13 22:37:00,37.9,31.4,29.75,SW,225,0.0,0.0,77,0.00,,,0.22,WUHU21623XXSP,2013-02-14 04:37:00,
2013-02-13 22:42:00,37.8,31.2,29.75,SW,225,0.0,0.0,77,0.00,,,0.22,WUHU21623XXSP,2013-02-14 04:42:00,
2013-02-13 22:47:00,37.6,31.0,29.75,SW,225,0.0,0.0,77,0.00,,,0.22,WUHU21623XXSP,2013-02-14 04:47:00,
2013-02-13 22:52:00,37.4,30.8,29.75,SW,225,0.0,0.0,77,0.00,,,0.22,WUHU21623XXSP,2013-02-14 04:52:00,
2013-02-13 22:57:00,37.2,30.7,29.75,SW,225,0.0,0.0,77,0.00,,,0.22,WUHU21623XXSP,2013-02-14 04:57:00,
2013-02-13 23:00:00,37.2,30.7,29.75,SW,225,0.0,0.0,77,0.00,,,0.22,WUHU21623XXSP,2013-02-14 05:00:00,
2013-02-13 23:05:00,37.0,30.5,29.75,SW,225,0.0,0.0,77,0.00,,,0.22,WUHU21623XXSP,2013-02-14 05:05:00,
2013-02-13 23:10:00,37.0,30.5,29.75,SW,225,0.0,0.0,77,0.00,,,0.22,WUHU21623XXSP,2013-02-14 05:10:00,
2013-02-13 23:15:00,36.9,30.3,29.75,SW,225,0.0,0.0,77,0.00,,,0.22,WUHU21623XXSP,2013-02-14 05:15:00,
2013-02-13 23:20:00,36.7,30.1,29.75,SW,225,0.0,0.0,77,0.00,,,0.22,WUHU21623XXSP,2013-02-14 05:20:00,
2013-02-13 23:25:00,36.5,29.9,29.75,SW,225,0.0,0.0,77,0.00,,,0.22,WUHU21623XXSP,2013-02-14 05:25:00,
2013-02-13 23:30:00,36.3,29.8,29.75,SW,225,0.0,0.0,77,0.00,,,0.22,WUHU21623XXSP,2013-02-14 05:30:00,
2013-02-13 23:35:00,36.3,29.8,29.75,SW,225,0.0,0.0,77,0.00,,,0.22,WUHU21623XXSP,2013-02-14 05:35:00,
2013-02-13 23:40:00,36.1,29.6,29.75,SW,225,0.0,0.0,77,0.00,,,0.22,WUHU21623XXSP,2013-02-14 05:40:00,
2013-02-13 23:45:00,36.0,29.4,29.75,SW,225,0.0,0.0,77,0.00,,,0.22,WUHU21623XXSP,2013-02-14 05:45:00,
2013-02-13 23:50:00,35.8,29.2,29.75,SW,225,0.0,0.0,77,0.00,,,0.22,WUHU21623XXSP,2013-02-14 05:50:00,
2013-02-13 23:55:00,35.8,29.2,29.75,SW,225,0.0,0.0,77,0.00,,,0.22,WUHU21623XXSP,2013-02-14 05:55:00,